Regional Weather Roundup
Issued by NWS

Home | Current Version | Previous Version | Text Only | Print | Product List | Glossary Off
Versions: 1 2 3 4 5 6 7 8 9 10 11 12 13 14 15 16 17 18 19 20 21 22 23 24 25 26 27 28 29 30 31 32 33 34 35 36 37 38 39 40 41 42 43 44 45 46 47 48 49 50

000
ASUS43 KOAX 171010
RWRNE

WEATHER ROUNDUP FOR NEBRASKA
NATIONAL WEATHER SERVICE OMAHA NE
400 AM CST SUN DEC 17 2017

NOTES: SATELLITE DATA IS BEING USED TO AUGMENT CLOUD COVER ABOVE
       12000 FEET.
       "FAIR" INDICATES FEW OR NO CLOUDS BELOW 12,000 FEET WITH NO
       SIGNIFICANT WEATHER AND/OR OBSTRUCTIONS TO VISIBILITY.


NEZ001>004-019>022-054>056-171100-
NEBRASKA PANHANDLE

CITY           SKY/WX    TMP DP  RH WIND       PRES   REMARKS
SCOTTSBLUFF    CLOUDY    31  29  92 E7        30.01R WCI  24
ALLIANCE       CLOUDY    30  28  92 N7        29.99S WCI  23
CHADRON        CLOUDY    30  28  92 CALM      30.04S
GORDON         CLOUDY    31  28  88 N3        30.01S
KIMBALL        CLOUDY    29  29  99 E6        29.96R WCI  23
SIDNEY         CLOUDY    30  29  96 NE8       29.98S FOG     WCI  22
$$

NEZ057>060-069>072-079>082-171100-
SOUTHWEST NEBRASKA

CITY           SKY/WX    TMP DP  RH WIND       PRES   REMARKS
NORTH PLATTE   CLOUDY    35  32  88 NE9       29.98F WCI  28
IMPERIAL       CLOUDY    34  34 100 NE8       29.98S WCI  27
LEXINGTON      CLOUDY    32  29  88 N9        29.97S WCI  24
MCCOOK         CLOUDY    35  31  85 NE9       29.96S WCI  28
OGALLALA       DRIZZLE   35  33  91 NE7       30.00S WCI  29
$$

NEZ005>010-023>029-035>040-094-171100-
NORTH CENTRAL NEBRASKA

CITY           SKY/WX    TMP DP  RH WIND       PRES   REMARKS
VALENTINE      CLOUDY    31  29  92 W3        30.03R
AINSWORTH      CLOUDY    34  33  97 CALM      30.03R
BROKEN BOW     CLOUDY    35  30  82 NE10      29.99F WCI  27
O`NEILL        CLOUDY    32  32 100 N3        30.02F
ORD            CLOUDY    35  29  78 N7        30.00S WCI  29
THEDFORD       CLOUDY    35  33  94 NE5       30.01F FOG     WCI  30
$$

NEZ041-046>049-061>064-073>077-083>087-171100-
SOUTH CENTRAL NEBRASKA

CITY           SKY/WX    TMP DP  RH WIND       PRES   REMARKS
GRAND ISLAND   CLOUDY    31  29  92 N12       29.98R WCI  22
AURORA         CLOUDY    31  28  90 NE9       29.98R WCI  23
HASTINGS       CLOUDY    31  28  89 N15       29.96R WCI  20
HEBRON         LGT RAIN  37  29  75 CALM      29.96R
HOLDREGE       PTCLDY    31  31  98 N10       29.95R WCI  22
KEARNEY        CLOUDY    30  28  92 N14       29.97R WCI  19
YORK           CLOUDY    32  32 100 N13       29.97R WCI  22
$$

NEZ011>018-030>034-042>045-171100-
NORTHEAST NEBRASKA

CITY           SKY/WX    TMP DP  RH WIND       PRES   REMARKS
NORFOLK        CLOUDY    31  28  89 N8        29.98F WCI  23
ALBION         CLOUDY    33  30  88 N7        29.99S WCI  27
BLAIR          MOCLDY    31  28  88 N13       29.95R WCI  21
COLUMBUS       CLOUDY    30  27  88 N13       29.99S WCI  20
FREMONT        CLOUDY    30  27  88 N5        29.99R WCI  25
TEKAMAH        CLOUDY    28  23  81 N15       29.98F WCI  16
WAYNE          CLOUDY    29  28  96 N8        30.00F WCI  21
$$

NEZ050>053-065>068-078-088>093-171100-
SOUTHEAST NEBRASKA

CITY           SKY/WX    TMP DP  RH WIND       PRES   REMARKS
LINCOLN        CLOUDY    33  27  78 N10       29.98R WCI  25
OMAHA EPPLEY   CLOUDY    30  24  78 N9        29.97S WCI  22
BEATRICE       LGT RAIN  36  29  74 CALM      29.94R
FALLS CITY     LGT RAIN  39  29  67 S5        29.95R
NEBRASKA CITY  MOCLDY    34  27  75 CALM      29.94R
PLATTSMOUTH    CLOUDY    32  29  86 CALM      29.95R
$$

NEZ044-045-051>053-067-171100-
OMAHA AREA

CITY           SKY/WX    TMP DP  RH WIND       PRES   REMARKS
OMAHA EPPLEY   CLOUDY    30  24  78 N9        29.97S WCI  22
BLAIR          MOCLDY    31  28  88 N13       29.95R WCI  21
FREMONT        CLOUDY    30  27  88 N5        29.99R WCI  25
MILLARD        CLOUDY    34  29  80 CALM      29.98R
OFFUTT AFB     MOCLDY    33  27  78 N3        29.96R
PLATTSMOUTH    CLOUDY    32  29  86 CALM      29.95R
WAHOO          FAIR      31  28  87 N9        29.98R WCI  23
$$



USA.gov is the U.S. government's official web portal to all federal, state and local government web resources and services.